User: anonymous   Login
Location: Niverville
(49.6028°N, 97.0419°W)
Time: 02:23:34
(UTC-05:00)
Language:

BREEZE-M DEB (TANK) - Orbit

View from above orbital plane
View from above orbital plane
View from above satellite
View from above satellite

Ground track
Ground track

The orbit data is extracted from the following two-line orbital elements,

1 33374U 08044B   17229.09667705  .00000418  00000-0  10197-3 0  9991
2 33374  49.4421 240.6041 5432181 121.3210 303.0611  4.87108170156975
Epoch (UTC): 17 August 2017 02:19:12
Eccentricity: 0.5432181
inclination: 49.4421°
perigee height: 336 km
apogee height: 16307 km
right ascension of ascending node: 240.6041°
argument of perigee: 121.3210°
revolutions per day: 4.87108170
mean anomaly at epoch: 303.0611°
orbit number at epoch: 15697

The dashed part of the orbit path shows where the satellite is in the earth's shadow,  

DLR